JST461 YBNA-YSSY

Flight info

Callsign JST461
Flight time 1h 3m
Altitude 36000
Route BNA W494 IDNER H98 SANAD H91 IGDAM H652 BOREE
Aircraft A320/M-SDE3FGHIRWY/LB1

Departure

Time 2026-05-06 15:22
Airport Ballina Byron Gateway Airport (YBNA)

Arrival

Time 2026-05-06 16:26
Airport Sydney Kingsford Smith International Airport (YSSY)
Time Latitude Longitude Altitude Speed Heading
2026-05-06 14:59 -28.83677 153.55691 14 ft 0 kts 207°
2026-05-06 15:17 -28.83678 153.55690 16 ft 0 kts 208°
2026-05-06 15:17 -28.83682 153.55674 15 ft 3 kts 271°
2026-05-06 15:18 -28.83662 153.55665 16 ft 4 kts
2026-05-06 15:18 -28.83629 153.55686 15 ft 7 kts 36°
2026-05-06 15:18 -28.83581 153.55689 14 ft 8 kts 343°
2026-05-06 15:18 -28.83514 153.55666 14 ft 11 kts 343°
2026-05-06 15:19 -28.83444 153.55678 14 ft 12 kts 63°
2026-05-06 15:19 -28.83413 153.55797 14 ft 20 kts 72°
2026-05-06 15:19 -28.83371 153.55955 16 ft 22 kts 73°
2026-05-06 15:19 -28.83326 153.56129 15 ft 24 kts 73°
2026-05-06 15:20 -28.83277 153.56315 16 ft 25 kts 73°
2026-05-06 15:20 -28.83224 153.56519 13 ft 28 kts 73°
2026-05-06 15:20 -28.83167 153.56737 14 ft 29 kts 73°
2026-05-06 15:20 -28.83113 153.56942 15 ft 18 kts 73°
2026-05-06 15:21 -28.83077 153.57012 16 ft 8 kts 49°
2026-05-06 15:21 -28.83081 153.57037 16 ft 2 kts 159°
2026-05-06 15:21 -28.83092 153.57019 16 ft 4 kts 248°
2026-05-06 15:21 -28.83113 153.56940 16 ft 32 kts 253°
2026-05-06 15:22 -28.83257 153.56390 15 ft 108 kts 253°
2026-05-06 15:22 -28.83528 153.55358 146 ft 148 kts 254°
2026-05-06 15:22 -28.83818 153.54264 797 ft 144 kts 254°
2026-05-06 15:22 -28.84106 153.53163 1321 ft 145 kts 255°
2026-05-06 15:23 -28.84408 153.52001 1501 ft 163 kts 255°
2026-05-06 15:23 -28.84594 153.50626 1578 ft 190 kts 270°
2026-05-06 15:23 -28.84580 153.49033 1821 ft 212 kts 273°
2026-05-06 15:23 -28.84520 153.47276 2127 ft 233 kts 274°
2026-05-06 15:24 -28.84481 153.45336 2525 ft 256 kts 269°
2026-05-06 15:24 -28.84585 153.43280 3321 ft 262 kts 267°
2026-05-06 15:24 -28.84739 153.41215 4293 ft 261 kts 265°
2026-05-06 15:24 -28.84907 153.39152 5221 ft 262 kts 265°
2026-05-06 15:25 -28.85074 153.37072 6113 ft 264 kts 265°
2026-05-06 15:25 -28.85240 153.34974 6963 ft 266 kts 265°
2026-05-06 15:25 -28.85401 153.32898 7790 ft 268 kts 265°
2026-05-06 15:25 -28.85563 153.30775 8632 ft 269 kts 265°
2026-05-06 15:26 -28.85722 153.28649 9475 ft 270 kts 265°
2026-05-06 15:26 -28.85880 153.26503 10264 ft 273 kts 265°
2026-05-06 15:26 -28.86168 153.24274 10495 ft 297 kts 253°
2026-05-06 15:26 -28.87262 153.22183 10701 ft 322 kts 227°
2026-05-06 15:27 -28.89128 153.20667 11210 ft 335 kts 215°
2026-05-06 15:27 -28.91132 153.19265 11826 ft 340 kts 215°
2026-05-06 15:27 -28.93158 153.17841 12447 ft 345 kts 216°
2026-05-06 15:27 -28.95217 153.16393 13065 ft 350 kts 216°
2026-05-06 15:28 -28.97306 153.14925 13670 ft 355 kts 217°
2026-05-06 15:28 -28.99428 153.13437 14221 ft 360 kts 217°
2026-05-06 15:28 -29.01573 153.11935 14783 ft 364 kts 217°
2026-05-06 15:28 -29.03741 153.10422 15352 ft 367 kts 216°
2026-05-06 15:29 -29.05924 153.08900 15930 ft 369 kts 216°
2026-05-06 15:29 -29.08127 153.07360 16507 ft 372 kts 216°
2026-05-06 15:29 -29.10338 153.05809 17082 ft 374 kts 216°
2026-05-06 15:29 -29.12566 153.04243 17674 ft 377 kts 216°
2026-05-06 15:30 -29.14806 153.02667 18260 ft 380 kts 216°
2026-05-06 15:30 -29.17066 153.01078 18790 ft 383 kts 216°
2026-05-06 15:30 -29.19347 152.99474 19340 ft 385 kts 216°
2026-05-06 15:30 -29.21635 152.97866 19895 ft 387 kts 217°
2026-05-06 15:31 -29.23939 152.96245 20443 ft 390 kts 217°
2026-05-06 15:31 -29.26258 152.94611 20972 ft 393 kts 217°
2026-05-06 15:31 -29.28594 152.92963 21489 ft 396 kts 217°
2026-05-06 15:32 -29.33285 152.89655 22485 ft 401 kts 218°
2026-05-06 15:32 -29.35675 152.87972 22971 ft 404 kts 218°
2026-05-06 15:32 -29.38079 152.86282 23439 ft 407 kts 218°
2026-05-06 15:32 -29.40497 152.84580 23873 ft 409 kts 218°
2026-05-06 15:33 -29.42923 152.82863 24277 ft 411 kts 218°
2026-05-06 15:33 -29.45363 152.81131 24693 ft 412 kts 219°
2026-05-06 15:33 -29.47808 152.79396 25075 ft 414 kts 219°
2026-05-06 15:33 -29.50264 152.77658 25436 ft 416 kts 219°
2026-05-06 15:34 -29.52735 152.75911 25814 ft 417 kts 219°
2026-05-06 15:34 -29.55211 152.74158 26177 ft 419 kts 219°
2026-05-06 15:34 -29.57697 152.72394 26536 ft 421 kts 219°
2026-05-06 15:34 -29.60199 152.70619 26898 ft 423 kts 219°
2026-05-06 15:35 -29.62707 152.68837 27288 ft 425 kts 219°
2026-05-06 15:35 -29.65228 152.67049 27642 ft 427 kts 219°
2026-05-06 15:35 -29.67765 152.65252 27996 ft 429 kts 219°
2026-05-06 15:35 -29.70309 152.63447 28355 ft 431 kts 220°
2026-05-06 15:36 -29.72860 152.61631 28707 ft 432 kts 220°
2026-05-06 15:36 -29.75425 152.59805 29047 ft 434 kts 220°
2026-05-06 15:36 -29.78001 152.57968 29381 ft 436 kts 220°
2026-05-06 15:36 -29.80588 152.56124 29724 ft 438 kts 220°
2026-05-06 15:37 -29.83171 152.54282 30181 ft 437 kts 220°
2026-05-06 15:37 -29.85753 152.52439 30608 ft 435 kts 220°
2026-05-06 15:37 -29.88322 152.50605 30985 ft 434 kts 220°
2026-05-06 15:37 -29.90880 152.48781 31416 ft 432 kts 221°
2026-05-06 15:38 -29.93439 152.46959 31830 ft 431 kts 221°
2026-05-06 15:38 -29.95944 152.45169 32250 ft 429 kts 221°
2026-05-06 15:38 -29.98472 152.43359 32685 ft 427 kts 221°
2026-05-06 15:38 -30.00991 152.41554 33123 ft 425 kts 222°
2026-05-06 15:39 -30.03496 152.39756 33565 ft 423 kts 223°
2026-05-06 15:39 -30.05990 152.37963 33978 ft 422 kts 223°
2026-05-06 15:39 -30.08479 152.36177 34353 ft 420 kts 223°
2026-05-06 15:39 -30.10961 152.34395 34695 ft 419 kts 223°
2026-05-06 15:40 -30.13433 152.32619 35065 ft 417 kts 223°
2026-05-06 15:40 -30.15894 152.30851 35381 ft 416 kts 224°
2026-05-06 15:40 -30.18345 152.29089 35747 ft 414 kts 224°
2026-05-06 15:40 -30.20783 152.27333 36041 ft 413 kts 224°
2026-05-06 15:41 -30.25690 152.23791 36106 ft 419 kts 224°
2026-05-06 15:41 -30.30655 152.20206 36107 ft 421 kts 224°
2026-05-06 15:42 -30.35635 152.16611 36107 ft 422 kts 224°
2026-05-06 15:42 -30.40609 152.13019 36110 ft 422 kts 224°
2026-05-06 15:43 -30.45589 152.09418 36113 ft 422 kts 224°
2026-05-06 15:43 -30.50532 152.05837 36150 ft 422 kts 224°
2026-05-06 15:44 -30.55508 152.02230 36137 ft 421 kts 224°
2026-05-06 15:44 -30.60480 151.98612 36115 ft 422 kts 224°
2026-05-06 15:45 -30.65454 151.94988 36099 ft 422 kts 224°
2026-05-06 15:45 -30.70442 151.91362 36116 ft 424 kts 223°
2026-05-06 15:46 -30.75444 151.87726 36112 ft 423 kts 223°
2026-05-06 15:46 -30.80448 151.84083 36114 ft 425 kts 223°
2026-05-06 15:47 -30.85457 151.80424 36124 ft 425 kts 223°
2026-05-06 15:47 -30.90443 151.76769 36125 ft 425 kts 223°
2026-05-06 15:48 -30.95434 151.73095 36145 ft 425 kts 223°
2026-05-06 15:48 -31.00438 151.69423 36133 ft 425 kts 223°
2026-05-06 15:49 -31.05441 151.65751 36135 ft 425 kts 223°
2026-05-06 15:49 -31.10441 151.62068 36110 ft 425 kts 223°
2026-05-06 15:50 -31.15450 151.58380 36137 ft 426 kts 222°
2026-05-06 15:50 -31.20470 151.54684 36133 ft 426 kts 222°
2026-05-06 15:51 -31.25460 151.50998 36129 ft 427 kts 222°
2026-05-06 15:51 -31.30487 151.47284 36126 ft 428 kts 222°
2026-05-06 15:52 -31.35519 151.43563 36163 ft 428 kts 222°
2026-05-06 15:52 -31.40833 151.40259 36149 ft 443 kts 211°
2026-05-06 15:53 -31.46573 151.37708 36134 ft 443 kts 211°
2026-05-06 15:53 -31.52304 151.35151 36125 ft 443 kts 211°
2026-05-06 15:54 -31.58064 151.32571 36149 ft 444 kts 210°
2026-05-06 15:54 -31.63830 151.29990 36101 ft 443 kts 210°
2026-05-06 15:55 -31.69591 151.27406 36115 ft 443 kts 210°
2026-05-06 15:55 -31.75355 151.24811 36113 ft 444 kts 210°
2026-05-06 15:56 -31.81116 151.22215 36106 ft 444 kts 210°
2026-05-06 15:56 -31.86881 151.19617 36112 ft 444 kts 210°
2026-05-06 15:57 -31.92649 151.17028 36114 ft 444 kts 210°
2026-05-06 15:57 -31.98387 151.14456 36111 ft 444 kts 210°
2026-05-06 15:58 -32.04163 151.11862 36121 ft 444 kts 210°
2026-05-06 15:58 -32.09939 151.09266 35904 ft 445 kts 210°
2026-05-06 15:59 -32.12834 151.07967 35195 ft 447 kts 210°
2026-05-06 15:59 -32.15750 151.06653 34433 ft 450 kts 210°
2026-05-06 15:59 -32.18686 151.05325 33568 ft 454 kts 210°
2026-05-06 15:59 -32.21626 151.04000 32958 ft 452 kts 209°
2026-05-06 16:00 -32.23605 151.03111 32591 ft 449 kts 209°
2026-05-06 16:00 -32.26512 151.01812 32076 ft 445 kts 209°
2026-05-06 16:00 -32.29398 151.00520 31540 ft 441 kts 209°
2026-05-06 16:00 -32.32259 150.99229 30999 ft 439 kts 209°
2026-05-06 16:01 -32.35098 150.97943 30480 ft 436 kts 209°
2026-05-06 16:01 -32.37923 150.96664 29914 ft 433 kts 209°
2026-05-06 16:01 -32.40691 150.95411 29376 ft 429 kts 209°
2026-05-06 16:01 -32.43466 150.94158 28859 ft 425 kts 209°
2026-05-06 16:02 -32.46218 150.92917 28345 ft 422 kts 207°
2026-05-06 16:02 -32.49077 150.92023 27833 ft 429 kts 197°
2026-05-06 16:02 -32.52080 150.91768 27307 ft 437 kts 185°
2026-05-06 16:02 -32.55115 150.92156 26801 ft 441 kts 178°
2026-05-06 16:03 -32.58143 150.92699 26281 ft 439 kts 178°
2026-05-06 16:03 -32.61156 150.93244 25789 ft 436 kts 178°
2026-05-06 16:03 -32.64149 150.93779 25299 ft 434 kts 178°
2026-05-06 16:03 -32.67131 150.94308 24827 ft 433 kts 178°
2026-05-06 16:04 -32.70103 150.94831 24343 ft 431 kts 178°
2026-05-06 16:04 -32.73062 150.95348 23869 ft 429 kts 177°
2026-05-06 16:04 -32.76017 150.95867 23349 ft 428 kts 177°
2026-05-06 16:04 -32.78960 150.96389 22880 ft 425 kts 177°
2026-05-06 16:05 -32.81872 150.96911 22443 ft 422 kts 177°
2026-05-06 16:05 -32.84767 150.97430 21977 ft 420 kts 176°
2026-05-06 16:05 -32.87647 150.97947 21512 ft 417 kts 176°
2026-05-06 16:05 -32.90508 150.98458 21032 ft 415 kts 176°
2026-05-06 16:06 -32.93356 150.98963 20554 ft 413 kts 176°
2026-05-06 16:06 -32.96193 150.99466 20088 ft 411 kts 176°
2026-05-06 16:06 -32.99008 150.99970 19623 ft 408 kts 175°
2026-05-06 16:06 -33.01790 151.00471 19196 ft 401 kts 175°
2026-05-06 16:07 -33.04529 151.00963 18632 ft 394 kts 175°
2026-05-06 16:07 -33.07215 151.01447 18146 ft 388 kts 175°
2026-05-06 16:07 -33.09876 151.01926 17656 ft 384 kts 175°
2026-05-06 16:07 -33.12506 151.02393 17202 ft 380 kts 175°
2026-05-06 16:08 -33.15109 151.02855 16743 ft 377 kts 175°
2026-05-06 16:08 -33.17688 151.03315 16285 ft 373 kts 175°
2026-05-06 16:08 -33.20250 151.03778 15831 ft 370 kts 175°
2026-05-06 16:08 -33.22788 151.04236 15385 ft 367 kts 175°
2026-05-06 16:09 -33.25303 151.04692 14935 ft 365 kts 174°
2026-05-06 16:09 -33.27804 151.05162 14487 ft 363 kts 174°
2026-05-06 16:09 -33.30289 151.05638 14042 ft 361 kts 174°
2026-05-06 16:09 -33.32758 151.06119 13574 ft 358 kts 174°
2026-05-06 16:10 -33.35207 151.06593 13122 ft 355 kts 174°
2026-05-06 16:10 -33.37633 151.07061 12688 ft 351 kts 174°
2026-05-06 16:10 -33.40007 151.07518 12275 ft 348 kts 174°
2026-05-06 16:10 -33.42421 151.07986 11835 ft 346 kts 174°
2026-05-06 16:11 -33.44756 151.08436 11418 ft 344 kts 174°
2026-05-06 16:11 -33.47109 151.08883 10993 ft 341 kts 174°
2026-05-06 16:11 -33.49448 151.09328 10577 ft 339 kts 174°
2026-05-06 16:11 -33.51769 151.09773 10284 ft 333 kts 174°
2026-05-06 16:12 -33.54019 151.10204 10154 ft 322 kts 174°
2026-05-06 16:12 -33.56197 151.10624 10034 ft 312 kts 174°
2026-05-06 16:12 -33.58311 151.11037 9826 ft 305 kts 174°
2026-05-06 16:12 -33.60401 151.11444 9465 ft 304 kts 174°
2026-05-06 16:13 -33.62475 151.11849 8924 ft 301 kts 174°
2026-05-06 16:13 -33.64533 151.12252 8613 ft 298 kts 174°
2026-05-06 16:13 -33.66560 151.12651 8509 ft 293 kts 174°
2026-05-06 16:13 -33.68556 151.13113 8435 ft 294 kts 167°
2026-05-06 16:14 -33.70433 151.14102 8300 ft 297 kts 150°
2026-05-06 16:14 -33.72045 151.15669 8151 ft 300 kts 136°
2026-05-06 16:14 -33.73484 151.17464 7997 ft 300 kts 136°
2026-05-06 16:14 -33.74935 151.19264 7834 ft 299 kts 136°
2026-05-06 16:15 -33.76381 151.21058 7681 ft 299 kts 136°
2026-05-06 16:15 -33.77824 151.22854 7517 ft 298 kts 136°
2026-05-06 16:15 -33.79264 151.24647 7370 ft 297 kts 136°
2026-05-06 16:15 -33.80698 151.26431 7215 ft 297 kts 136°
2026-05-06 16:16 -33.82230 151.28076 7061 ft 294 kts 148°
2026-05-06 16:16 -33.84021 151.29204 6911 ft 288 kts 164°
2026-05-06 16:16 -33.85948 151.29805 6764 ft 285 kts 172°
2026-05-06 16:16 -33.87858 151.30298 6637 ft 276 kts 172°
2026-05-06 16:17 -33.89711 151.30784 6508 ft 268 kts 172°
2026-05-06 16:17 -33.91495 151.31253 6389 ft 259 kts 172°
2026-05-06 16:17 -33.93229 151.31709 6238 ft 251 kts 172°
2026-05-06 16:17 -33.94926 151.32153 6109 ft 249 kts 172°
2026-05-06 16:18 -33.96620 151.32599 5821 ft 250 kts 172°
2026-05-06 16:18 -33.98313 151.33042 5517 ft 248 kts 172°
2026-05-06 16:18 -33.99976 151.33476 5220 ft 247 kts 171°
2026-05-06 16:18 -34.01648 151.33913 4943 ft 245 kts 171°
2026-05-06 16:19 -34.03304 151.34349 4704 ft 243 kts 171°
2026-05-06 16:19 -34.04957 151.34781 4450 ft 242 kts 170°
2026-05-06 16:19 -34.06606 151.35210 4139 ft 242 kts 171°
2026-05-06 16:19 -34.08251 151.35641 3818 ft 243 kts 171°
2026-05-06 16:20 -34.09916 151.35876 3483 ft 239 kts 192°
2026-05-06 16:20 -34.11398 151.35153 3158 ft 226 kts 226°
2026-05-06 16:20 -34.12235 151.33681 2966 ft 207 kts 256°
2026-05-06 16:20 -34.12584 151.32039 2787 ft 198 kts 261°
2026-05-06 16:21 -34.12817 151.30429 2603 ft 191 kts 262°
2026-05-06 16:21 -34.13014 151.28878 2470 ft 182 kts 263°
2026-05-06 16:21 -34.13089 151.27387 2282 ft 176 kts 280°
2026-05-06 16:21 -34.12575 151.26069 2190 ft 177 kts 306°
2026-05-06 16:22 -34.11785 151.24954 2115 ft 173 kts 308°
2026-05-06 16:22 -34.11001 151.23855 2032 ft 173 kts 307°
2026-05-06 16:22 -34.10081 151.22911 2005 ft 178 kts 327°
2026-05-06 16:22 -34.08886 151.22452 2012 ft 182 kts 342°
2026-05-06 16:23 -34.07646 151.22131 2004 ft 182 kts 342°
2026-05-06 16:23 -34.06428 151.21815 1869 ft 175 kts 342°
2026-05-06 16:23 -34.05266 151.21514 1665 ft 167 kts 342°
2026-05-06 16:23 -34.04155 151.21225 1457 ft 159 kts 342°
2026-05-06 16:24 -34.03106 151.20952 1257 ft 150 kts 342°
2026-05-06 16:24 -34.02091 151.20688 1059 ft 148 kts 341°
2026-05-06 16:24 -34.01085 151.20425 856 ft 147 kts 342°
2026-05-06 16:24 -34.00104 151.20170 668 ft 143 kts 344°
2026-05-06 16:25 -33.99140 151.19919 479 ft 141 kts 344°
2026-05-06 16:25 -33.98181 151.19672 293 ft 140 kts 345°
2026-05-06 16:25 -33.97240 151.19421 92 ft 138 kts 344°
2026-05-06 16:25 -33.96361 151.19190 25 ft 110 kts 348°
2026-05-06 16:26 -33.95730 151.19027 30 ft 81 kts 347°
2026-05-06 16:26 -33.95424 151.18932 25 ft 35 kts 339°
2026-05-06 16:26 -33.95249 151.18805 27 ft 17 kts 319°
2026-05-06 16:26 -33.95163 151.18712 29 ft 16 kts 316°
2026-05-06 16:27 -33.95089 151.18624 30 ft 12 kts 298°
2026-05-06 16:27 -33.95099 151.18516 30 ft 14 kts 257°
2026-05-06 16:27 -33.95122 151.18391 30 ft 17 kts 258°
2026-05-06 16:27 -33.95148 151.18246 30 ft 19 kts 257°
2026-05-06 16:28 -33.95177 151.18083 30 ft 21 kts 258°
2026-05-06 16:28 -33.95149 151.17957 30 ft 17 kts 341°
2026-05-06 16:28 -33.95023 151.17923 30 ft 20 kts 348°
2026-05-06 16:28 -33.94879 151.17886 30 ft 22 kts 347°
2026-05-06 16:29 -33.94720 151.17844 30 ft 24 kts 348°
2026-05-06 16:29 -33.94547 151.17799 30 ft 26 kts 348°
2026-05-06 16:29 -33.94366 151.17745 30 ft 28 kts 346°
2026-05-06 16:29 -33.94196 151.17693 29 ft 9 kts 345°
2026-05-06 16:30 -33.94122 151.17670 29 ft 13 kts 348°
2026-05-06 16:30 -33.94054 151.17652 28 ft 17 kts 347°
2026-05-06 16:30 -33.93901 151.17613 29 ft 13 kts
2026-05-06 16:30 -33.93858 151.17703 29 ft 14 kts 75°
2026-05-06 16:31 -33.93791 151.17768 30 ft 13 kts 13°
2026-05-06 16:31 -33.93693 151.17798 30 ft 16 kts 14°
2026-05-06 16:31 -33.93610 151.17820 30 ft 8 kts 10°
2026-05-06 16:31 -33.93573 151.17818 30 ft 6 kts 322°
2026-05-06 16:32 -33.93564 151.17767 30 ft 3 kts 279°
2026-05-06 16:32 -33.93563 151.17760 30 ft 0 kts 280°